When you browse on this site, cookies collect data to enhance your experience and personalize the content and advertising you see.
Visit our Privacy Policy to learn more. By continuing to use the site, you agree to this use of cookies and data.
  • In Slovakia
  • List of Countries
  • For 7 days
  • Water Temperature
  • Satellite Maps
  • Weather Map
  • Weather Widgets
  • user-avatar
    Login

    Hourly Weather Elbasan

    Today, 14 December, Friday

    Time Temperature Precipitation Wind Pressure Humidity
    00:00 +4°C° 0.3 mm 3 mps 734 mmHg 83%
    01:00 +5°C° 0 mm 5 mps 733 mmHg 84%
    02:00 +5°C° 0.4 mm 4 mps 733 mmHg 85%
    03:00 +5°C° 0.4 mm 4 mps 733 mmHg 87%
    04:00 +7°C° 0.4 mm 3 mps 733 mmHg 88%
    05:00 +7°C° 0.5 mm 3 mps 733 mmHg 88%
    06:00 +7°C° 0.5 mm 3 mps 733 mmHg 89%
    07:00 +7°C° 0 mm 3 mps 733 mmHg 90%
    08:00 +8°C° 0.3 mm 3 mps 733 mmHg 87%
    09:00 +10°C° 0.3 mm 3 mps 733 mmHg 84%
    10:00 +11°C° 0.3 mm 4 mps 733 mmHg 81%
    11:00 +12°C° 0 mm 4 mps 733 mmHg 79%
    12:00 +12°C° 0 mm 4 mps 733 mmHg 76%
    13:00 +13°C° 0 mm 4 mps 733 mmHg 74%
    14:00 +12°C° 0.2 mm 4 mps 732 mmHg 77%
    15:00 +12°C° 0.2 mm 4 mps 732 mmHg 80%
    16:00 +11°C° 0.2 mm 3 mps 732 mmHg 83%
    17:00 +10°C° 0.1 mm 4 mps 732 mmHg 84%
    18:00 +10°C° 0.1 mm 4 mps 732 mmHg 85%
    19:00 +8°C° 0.1 mm 4 mps 732 mmHg 86%
    20:00 +9°C° 0.1 mm 3 mps 732 mmHg 86%
    21:00 +9°C° 0.1 mm 3 mps 732 mmHg 85%
    22:00 +8°C° 0.1 mm 3 mps 732 mmHg 85%
    23:00 +8°C° 0 mm 3 mps 732 mmHg 85%

    Tomorrow, 15 December, Saturday

    Time Temperature Precipitation Wind Pressure Humidity
    00:00 +8°C° 0 mm 3 mps 732 mmHg 84%
    01:00 +8°C° 0 mm 3 mps 732 mmHg 84%
    02:00 +8°C° 0 mm 3 mps 732 mmHg 84%
    03:00 +8°C° 0 mm 3 mps 731 mmHg 83%
    04:00 +8°C° 0 mm 3 mps 731 mmHg 83%
    05:00 +8°C° 0.1 mm 3 mps 731 mmHg 83%
    06:00 +8°C° 0.1 mm 3 mps 731 mmHg 84%
    07:00 +8°C° 0.1 mm 3 mps 731 mmHg 84%
    08:00 +9°C° 0.2 mm 3 mps 731 mmHg 82%
    09:00 +10°C° 0.2 mm 3 mps 732 mmHg 81%
    10:00 +11°C° 0.2 mm 3 mps 732 mmHg 79%
    11:00 +11°C° 0.4 mm 3 mps 732 mmHg 77%
    12:00 +12°C° 0.4 mm 3 mps 731 mmHg 76%
    13:00 +12°C° 0.4 mm 3 mps 731 mmHg 74%
    14:00 +12°C° 0.4 mm 3 mps 731 mmHg 76%
    15:00 +11°C° 0.4 mm 3 mps 731 mmHg 79%
    16:00 +11°C° 0.4 mm 3 mps 731 mmHg 82%
    17:00 +10°C° 1.2 mm 2 mps 731 mmHg 84%
    18:00 +10°C° 1.2 mm 2 mps 731 mmHg 85%
    19:00 +10°C° 1.2 mm 2 mps 731 mmHg 87%
    20:00 +9°C° 1.3 mm 2 mps 731 mmHg 88%
    21:00 +9°C° 1.3 mm 2 mps 731 mmHg 90%
    22:00 +9°C° 1.3 mm 2 mps 732 mmHg 91%
    23:00 +9°C° 1.4 mm 2 mps 732 mmHg 92%

    Day after tomorrow, 16 December, Sunday

    Time Temperature Precipitation Wind Pressure Humidity
    00:00 +8°C° 1.4 mm 2 mps 732 mmHg 94%
    01:00 +8°C° 1.4 mm 2 mps 732 mmHg 96%
    02:00 +8°C° 1.3 mm 2 mps 732 mmHg 96%
    03:00 +8°C° 1.3 mm 2 mps 732 mmHg 96%
    04:00 +8°C° 1.3 mm 2 mps 732 mmHg 96%
    05:00 +8°C° 0.7 mm 2 mps 732 mmHg 95%
    06:00 +8°C° 0.7 mm 2 mps 732 mmHg 94%
    07:00 +7°C° 0.7 mm 2 mps 733 mmHg 93%
    08:00 +8°C° 0.3 mm 2 mps 733 mmHg 91%
    09:00 +8°C° 0.3 mm 2 mps 733 mmHg 89%
    10:00 +8°C° 0.3 mm 2 mps 734 mmHg 86%
    11:00 +8°C° 0.1 mm 2 mps 734 mmHg 83%
    12:00 +8°C° 0.1 mm 2 mps 734 mmHg 79%
    13:00 +8°C° 0.1 mm 2 mps 734 mmHg 76%
    14:00 +8°C° 0 mm 2 mps 734 mmHg 77%
    15:00 +8°C° 0 mm 2 mps 735 mmHg 79%
    16:00 +7°C° 0 mm 2 mps 735 mmHg 81%
    17:00 +7°C° 0 mm 2 mps 736 mmHg 82%
    18:00 +6°C° 0 mm 2 mps 736 mmHg 83%
    19:00 +6°C° 0 mm 2 mps 737 mmHg 85%
    20:00 +5°C° 0 mm 2 mps 737 mmHg 84%
    21:00 +5°C° 0 mm 2 mps 737 mmHg 84%
    22:00 +5°C° 0 mm 2 mps 737 mmHg 83%
    23:00 +5°C° 0 mm 2 mps 737 mmHg 83%

    17 December, Monday

    Time Temperature Precipitation Wind Pressure Humidity
    00:00 +6°C° 0 mm 1 mps 737 mmHg 82%
    01:00 +6°C° 0 mm 1 mps 737 mmHg 81%
    02:00 +6°C° 0 mm 1 mps 737 mmHg 80%
    03:00 +6°C° 0 mm 1 mps 737 mmHg 79%
    04:00 +7°C° 0 mm 1 mps 736 mmHg 79%
    05:00 +7°C° 0 mm 1 mps 737 mmHg 78%
    06:00 +7°C° 0 mm 1 mps 737 mmHg 77%
    07:00 +8°C° 0 mm 1 mps 737 mmHg 77%
    08:00 +9°C° 0.1 mm 1 mps 737 mmHg 76%
    09:00 +9°C° 0.1 mm 1 mps 737 mmHg 75%
    10:00 +10°C° 0.1 mm 1 mps 737 mmHg 74%
    11:00 +11°C° 0 mm 1 mps 737 mmHg 73%
    12:00 +11°C° 0 mm 1 mps 736 mmHg 73%
    13:00 +11°C° 0 mm 1 mps 736 mmHg 73%
    14:00 +11°C° 0 mm 1 mps 736 mmHg 75%
    15:00 +9°C° 0 mm 2 mps 736 mmHg 78%
    16:00 +9°C° 0 mm 2 mps 735 mmHg 80%
    17:00 +9°C° 0.1 mm 2 mps 735 mmHg 80%
    18:00 +8°C° 0.1 mm 2 mps 735 mmHg 80%
    19:00 +8°C° 0.1 mm 2 mps 735 mmHg 80%
    20:00 +8°C° 0.5 mm 3 mps 735 mmHg 82%
    21:00 +8°C° 0.5 mm 3 mps 735 mmHg 83%
    22:00 +8°C° 0.5 mm 3 mps 735 mmHg 84%
    23:00 +8°C° 2 mm 3 mps 735 mmHg 85%

    18 December, Tuesday

    Time Temperature Precipitation Wind Pressure Humidity
    00:00 +8°C° 2 mm 3 mps 734 mmHg 86%
    01:00 +7°C° 2 mm 4 mps 734 mmHg 88%
    02:00 +8°C° 3 mm 3 mps 734 mmHg 88%
    03:00 +8°C° 3 mm 3 mps 734 mmHg 88%
    04:00 +8°C° 3 mm 3 mps 733 mmHg 89%
    05:00 +8°C° 2.3 mm 3 mps 734 mmHg 89%
    06:00 +7°C° 2.3 mm 3 mps 734 mmHg 90%
    07:00 +7°C° 2.3 mm 2 mps 734 mmHg 90%
    08:00 +8°C° 0.5 mm 2 mps 734 mmHg 88%
    09:00 +8°C° 0.5 mm 2 mps 735 mmHg 86%
    10:00 +9°C° 0.5 mm 2 mps 735 mmHg 84%
    11:00 +9°C° 0.3 mm 2 mps 735 mmHg 83%
    12:00 +9°C° 0.3 mm 2 mps 735 mmHg 82%
    13:00 +9°C° 0.3 mm 3 mps 735 mmHg 81%
    14:00 +9°C° 0.1 mm 3 mps 736 mmHg 82%
    15:00 +8°C° 0.1 mm 3 mps 736 mmHg 83%
    16:00 +8°C° 0.1 mm 3 mps 736 mmHg 84%
    17:00 +7°C° 0 mm 3 mps 737 mmHg 84%
    18:00 +7°C° 0 mm 3 mps 737 mmHg 84%
    19:00 +5°C° 0 mm 3 mps 738 mmHg 84%
    20:00 +5°C° 0 mm 3 mps 738 mmHg 84%
    21:00 +5°C° 0 mm 3 mps 738 mmHg 83%
    22:00 +4°C° 0 mm 3 mps 739 mmHg 83%
    23:00 +4°C° 0 mm 3 mps 739 mmHg 83%

    19 December, Wednesday

    Time Temperature Precipitation Wind Pressure Humidity
    00:00 +5°C° 0 mm 2 mps 739 mmHg 83%
    01:00 +4°C° 0 mm 2 mps 739 mmHg 83%
    02:00 +4°C° 0 mm 2 mps 739 mmHg 82%
    03:00 +4°C° 0 mm 2 mps 739 mmHg 82%
    04:00 +4°C° 0 mm 2 mps 739 mmHg 82%
    05:00 +4°C° 0 mm 2 mps 739 mmHg 81%
    06:00 +4°C° 0 mm 2 mps 740 mmHg 81%
    07:00 +4°C° 0 mm 2 mps 740 mmHg 81%
    08:00 +6°C° 0 mm 2 mps 740 mmHg 77%
    09:00 +8°C° 0 mm 1 mps 740 mmHg 73%
    10:00 +10°C° 0 mm 1 mps 740 mmHg 69%
    11:00 +11°C° 0 mm 1 mps 740 mmHg 67%
    12:00 +11°C° 0 mm 1 mps 739 mmHg 65%
    13:00 +12°C° 0 mm 1 mps 739 mmHg 64%
    14:00 +11°C° 0 mm 1 mps 739 mmHg 69%
    15:00 +10°C° 0 mm 1 mps 739 mmHg 73%
    16:00 +9°C° 0 mm 1 mps 739 mmHg 78%
    17:00 +9°C° 0 mm 1 mps 739 mmHg 78%
    18:00 +8°C° 0 mm 1 mps 739 mmHg 79%
    19:00 +8°C° 0 mm 1 mps 740 mmHg 80%
    20:00 +8°C° 0 mm 1 mps 740 mmHg 80%
    21:00 +7°C° 0 mm 1 mps 740 mmHg 79%
    22:00 +7°C° 0 mm 1 mps 740 mmHg 79%
    23:00 +7°C° 0 mm 1 mps 740 mmHg 78%
    Show more